Home   Weather   Maun   Past weeks
Flag for Botswana

Past Weather in Maun, Botswana — Yesterday and Last 2 Weeks

Now
82 °F

Sunny.


Feels Like: 80 °F
Forecast: 103 / 67 °F
Wind: 10 mph from Southeast

Location: Maun Airport

Current Time: Oct 22, 2019 at 8:54:52 am

Latest Report: Oct 22, 2019 at 8:00 am


Visibility: 10 mi

Pressure: 29.92 "Hg (26.88 "Hg at 943m altitude)

Humidity: 15%

Dew Point: 30 °F

Location of MaunLocation

Past Weather in Maun — Graph

°F

Maun Temperature Yesterday

Maximum temperature yesterday: 104 °F (at 2:00 pm)
Minimum temperature yesterday: 63 °F (at 6:00 am)
Average temperature yesterday: 93 °F

High & Low Weather Summary for the Past Weeks

 TemperatureHumidityPressure
High104 °F (Oct 20, 2:00 pm)64% (Oct 12, 8:00 am)30.21 "Hg (Oct 12, 8:00 am)
Low63 °F (Oct 21, 6:00 am)7% (Oct 9, 12:00 pm)29.80 "Hg (Oct 9, 4:00 pm)
Average88 °F21%30.00 "Hg
* Reported Oct 7 7:00 am — Oct 22 7:00 am, Maun. Weather by CustomWeather, © 2019

Note: Actual official high and low records may vary slightly from our data, if they occured in-between our weather recording intervals... More about our weather records

Advertising

Maun Weather History for the Previous 24 Hours

Scroll right to see more
 ConditionsComfort  
Time TempWeatherWind HumidityBarometerVisibility
7:00 am
Tue, Oct 22
77 °FSunny.7 mph18%29.89 "Hg10 mi
6:00 am75 °FSunny.7 mph18%29.89 "Hg10 mi
9:00 pm
Mon, Oct 21
84 °FClear.2 mph15%29.86 "Hg10 mi
8:00 pm91 °FClear.3 mph12%29.83 "Hg10 mi
7:00 pm99 °FClear.3 mph10%29.83 "Hg10 mi
6:00 pm102 °FSunny.3 mph9%29.80 "Hg10 mi
5:00 pm104 °FSunny.6 mph8%29.80 "Hg10 mi
4:00 pm104 °FSunny.6 mph8%29.80 "Hg10 mi
3:00 pm104 °FSunny.8 mph9%29.83 "Hg10 mi
2:00 pm104 °FSunny.6 mph9%29.86 "Hg10 mi
1:00 pm102 °FSunny.7 mph9%29.89 "Hg10 mi
12:00 pm100 °FSunny.3 mph10%29.92 "Hg10 mi
11:00 am97 °FSunny.6 mph13%29.95 "Hg10 mi
10:00 am97 °FSunny.5 mph13%29.98 "Hg10 mi
9:00 am90 °FSunny.6 mph17%29.98 "Hg10 mi
8:00 am82 °FSunny.3 mph17%29.95 "Hg10 mi
Weather by CustomWeather, © 2019

See weather overview